Weather History for 78866 - December, 2012

Change the Weather History Date:

Friday, December 14, 2012

  Actual Average Record
Temperature  
Mean Temperature 80 °F -  
Max Temperature 85 °F 82 °F - ()
Min Temperature 75 °F 73 °F - ()
Cooling Degree Days 15    
Growing Degree Days 30 (Base 50)    
Moisture  
Dew Point 66 °F    
Average Humidity 62    
Maximum Humidity 78    
Minimum Humidity 42    
Precipitation  
Precipitation 0.00 in 0.10 in - ()
Sea Level Pressure  
Sea Level Pressure 29.91 in    
Wind  
Wind Speed 8 mph ()    
Max Wind Speed 13 mph    
Max Gust Speed -    
Visibility 7.1 miles    
Events      
T = Trace of Precipitation, MM = Missing Value Source: Averaged Metar Reports

Daily Weather History Graph

Daily Weather History Graph

Search for Another Location

Airport or City:

Trip Planner

Search our weather history database for the weather conditions in past years. The results will help you decide how hot, cold, wet, or windy it might be!

Date:

Astronomy

Dec. 14, 2012 Rise Set
Actual Time 6:35 AM AST 5:39 PM AST
Civil Twilight 6:11 AM AST 6:02 PM AST
Nautical Twilight 5:44 AM AST 6:30 PM AST
Astronomical Twilight 5:17 AM AST 6:56 PM AST
Moon 7:42 AM AST (12/14) 7:17 PM AST (12/14)
Length of Visible Light 11h 50m
Length of Day
11h 03m
Waxing Crescent, 3% of the Moon is Illuminated
Dec 14
Waxing Crescent
Dec 20
First Quarter
Dec 28
Full
Jan 4
Last Quarter
Jan 11
New

Hourly Weather History & Observations

Time (AST) Temp. Heat Index Dew Point Humidity Pressure Visibility Wind Dir Wind Speed Gust Speed Precip Events Conditions
12:00 AM 77.0 °F - 68.0 °F 74% 29.95 in 6.2 mi East 9.2 mph - N/A   Partly Cloudy
1:00 AM 77.0 °F - 68.0 °F 74% 29.95 in 6.2 mi ESE 11.5 mph - N/A   Partly Cloudy
2:00 AM 77 °F - 69 °F 69% 29.92 in 16 mi ESE 4.6 mph - -   Scattered Clouds
2:00 AM 77.0 °F - 69.8 °F 78% 29.92 in 6.2 mi East 4.6 mph - N/A   Partly Cloudy
3:00 AM 77.0 °F - 68.0 °F 74% 29.89 in 6.2 mi East 11.5 mph - N/A   Partly Cloudy
4:00 AM 77.0 °F - 68.0 °F 74% 29.89 in 6.2 mi East 10.4 mph - N/A   Partly Cloudy
5:00 AM 77 °F - 68 °F 66% 29.90 in 19 mi East 8.1 mph - -   Scattered Clouds
5:00 AM 77.0 °F - 68.0 °F 74% 29.89 in 6.2 mi East 9.2 mph - N/A   Partly Cloudy
6:00 AM 77.0 °F - 68.0 °F 74% 29.89 in 6.2 mi East 8.1 mph - N/A   Partly Cloudy
7:00 AM 78.8 °F - 68.0 °F 69% 29.92 in 6.2 mi East 11.5 mph - N/A   Scattered Clouds
8:00 AM 80 °F - 67 °F 56% 29.94 in 34 mi East 12.7 mph - -   Scattered Clouds
8:00 AM 80.6 °F 82.7 °F 66.2 °F 61% 29.92 in 6.2 mi East 12.7 mph - N/A   Partly Cloudy
9:00 AM 82.4 °F 85.4 °F 68.0 °F 62% 29.95 in 6.2 mi East 10.4 mph - N/A   Scattered Clouds
10:00 AM 82.4 °F 85.4 °F 68.0 °F 62% 29.95 in 6.2 mi East 10.4 mph - N/A   Scattered Clouds
11:00 AM 83 °F - 65 °F 46% 29.96 in 37 mi East 10.4 mph - -   Partly Cloudy
11:00 AM 84.2 °F 86.6 °F 66.2 °F 55% 29.95 in 6.2 mi East 10.4 mph - N/A   Partly Cloudy
12:00 PM 84.2 °F 86.6 °F 66.2 °F 55% 29.92 in 6.2 mi ENE 12.7 mph - N/A   Partly Cloudy
1:00 PM 84.2 °F 85.6 °F 64.4 °F 51% 29.89 in 6.2 mi ENE 11.5 mph - N/A   Partly Cloudy
2:00 PM 84 °F - 64 °F 42% 29.88 in 37 mi East 12.7 mph - -   Partly Cloudy
2:00 PM 84.2 °F 85.6 °F 64.4 °F 51% 29.86 in 6.2 mi ENE 12.7 mph - N/A   Partly Cloudy
3:00 PM 84.2 °F 85.0 °F 62.6 °F 48% 29.86 in 6.2 mi ENE 10.4 mph - N/A   Partly Cloudy
4:00 PM 82.4 °F 83.4 °F 62.6 °F 51% 29.86 in 6.2 mi ENE 11.5 mph - N/A   Partly Cloudy
5:00 PM 80 °F - 65 °F 51% 29.88 in 37 mi East 9.2 mph - -   Scattered Clouds
5:00 PM 80.6 °F 82.3 °F 64.4 °F 58% 29.86 in 6.2 mi East 9.2 mph - N/A   Partly Cloudy
6:00 PM 78.8 °F - 64.4 °F 61% 29.86 in 6.2 mi ENE 5.8 mph - N/A   Partly Cloudy
7:00 PM 77.0 °F - 64.4 °F 65% 29.89 in 6.2 mi East 6.9 mph - N/A   Partly Cloudy
8:00 PM 76 °F - 64 °F 57% 29.91 in 37 mi East 5.8 mph - -   Scattered Clouds
8:00 PM 77.0 °F - 64.4 °F 65% 29.89 in 6.2 mi East 5.8 mph - N/A   Partly Cloudy
9:00 PM 75.2 °F - 64.4 °F 69% 29.92 in 6.2 mi Variable 3.5 mph - N/A   Partly Cloudy
10:00 PM 77.0 °F - 64.4 °F 65% 29.92 in 6.2 mi East 4.6 mph - N/A   Partly Cloudy
11:00 PM 77 °F - 67 °F 63% 29.93 in 31 mi 3.5 mph - -   Partly Cloudy
11:00 PM 77.0 °F - 66.2 °F 69% 29.92 in 6.2 mi Variable 3.5 mph - N/A   Scattered Clouds